Weather History for Marfa, TX

Change the Weather History Date:

Tuesday, May 28, 2013

  Actual Average Record
Temperature  
Mean Temperature 76 °F -  
Max Temperature 91 °F 86 °F 98 °F (2011)
Min Temperature 60 °F 54 °F 44 °F (2007)
Cooling Degree Days 10    
Growing Degree Days 26 (Base 50)    
Moisture  
Dew Point 46 °F    
Average Humidity 48    
Maximum Humidity 94    
Minimum Humidity 10    
Precipitation  
Precipitation 0.01 in - - ()
Sea Level Pressure  
Sea Level Pressure 29.89 in    
Wind  
Wind Speed 8 mph (SSW)    
Max Wind Speed 25 mph    
Max Gust Speed 29 mph    
Visibility 10 miles    
Events Thunderstorm    
Averages and records for this station are not official NWS values.
T = Trace of Precipitation, MM = Missing Value Source: NWS Daily Summary

Daily Weather History Graph

Daily Weather History Graph

Search for Another Location

Airport:

Trip Planner

Search our weather history database for the weather conditions in past years. The results will help you decide how hot, cold, wet, or windy it might be!

Date:

Astronomy

May. 28, 2013 Rise Set
Actual Time 6:55 AM CDT 8:51 PM CDT
Civil Twilight 6:28 AM CDT 9:18 PM CDT
Nautical Twilight 5:55 AM CDT 9:51 PM CDT
Astronomical Twilight 5:21 AM CDT 10:26 PM CDT
Moon No Moon Rise 10:40 AM CDT (5/28)
Length of Visible Light 14h 49m
Length of Day
13h 55m
Waning Gibbous, 82% of the Moon is Illuminated
May 28
Waning Gibbous
May 31
Last Quarter
Jun 8
New
Jun 16
First Quarter
Jun 23
Full

Hourly Weather History & Observations

Time (CDT) Temp. Heat Index Dew Point Humidity Pressure Visibility Wind Dir Wind Speed Gust Speed Precip Events Conditions
12:15 AM 75.2 °F - 57.2 °F 53% 30.01 in 10.0 mi SW 9.2 mph - N/A Thunderstorm Thunderstorm
12:35 AM 73.4 °F - 59.0 °F 61% 29.99 in 10.0 mi Calm Calm - 0.01 in Thunderstorm Thunderstorm
12:55 AM 71.6 °F - 60.8 °F 69% 29.97 in 10.0 mi ENE 5.8 mph - 0.01 in   Partly Cloudy
1:15 AM 68.0 °F - 60.8 °F 78% 29.96 in 10.0 mi East 6.9 mph - N/A   Clear
1:35 AM 66.2 °F - 62.6 °F 88% 29.96 in 10.0 mi ESE 6.9 mph - N/A   Clear
1:55 AM 66.2 °F - 60.8 °F 83% 29.96 in 10.0 mi ESE 4.6 mph - N/A   Clear
2:15 AM 64.4 °F - 59.0 °F 83% 29.95 in 10.0 mi ENE 5.8 mph - N/A   Clear
2:35 AM 66.2 °F - 59.0 °F 78% 29.95 in 10.0 mi East 5.8 mph - N/A   Clear
2:55 AM 66.2 °F - 60.8 °F 83% 29.95 in 10.0 mi ESE 6.9 mph - N/A   Clear
3:15 AM 66.2 °F - 60.8 °F 83% 29.95 in 10.0 mi SE 3.5 mph - N/A   Clear
3:35 AM 66.2 °F - 59.0 °F 78% 29.94 in 10.0 mi Calm Calm - N/A   Clear
3:55 AM 64.4 °F - 60.8 °F 88% 29.93 in 10.0 mi North 3.5 mph - N/A   Clear
4:15 AM 64.4 °F - 59.0 °F 83% 29.93 in 10.0 mi NW 6.9 mph - N/A   Clear
4:35 AM 62.6 °F - 59.0 °F 88% 29.92 in 10.0 mi NNW 8.1 mph - N/A   Clear
4:55 AM 62.6 °F - 59.0 °F 88% 29.93 in 10.0 mi NNW 4.6 mph - N/A   Clear
5:15 AM 62.6 °F - 59.0 °F 88% 29.93 in 10.0 mi North 3.5 mph - N/A   Clear
5:35 AM 62.6 °F - 59.0 °F 88% 29.93 in 10.0 mi North 4.6 mph - N/A   Clear
5:55 AM 60.8 °F - 57.2 °F 88% 29.93 in 10.0 mi NE 6.9 mph - N/A   Clear
6:15 AM 60.8 °F - 57.2 °F 88% 29.93 in 10.0 mi NE 4.6 mph - N/A   Clear
6:35 AM 60.8 °F - 57.2 °F 88% 29.93 in 10.0 mi ENE 5.8 mph - N/A   Clear
6:55 AM 60.8 °F - 57.2 °F 88% 29.93 in 10.0 mi East 4.6 mph - N/A   Clear
7:15 AM 60.8 °F - 57.2 °F 88% 29.93 in 10.0 mi NW 5.8 mph - N/A   Clear
7:35 AM 60.8 °F - 57.2 °F 88% 29.93 in 10.0 mi NNE 3.5 mph - N/A   Clear
7:55 AM 62.6 °F - 57.2 °F 82% 29.93 in 10.0 mi Calm Calm - N/A   Clear
8:15 AM 62.6 °F - 60.8 °F 94% 29.93 in 10.0 mi Calm Calm - N/A   Clear
8:35 AM 64.4 °F - 60.8 °F 88% 29.93 in 10.0 mi ESE 4.6 mph - N/A   Clear
8:55 AM 66.2 °F - 59.0 °F 78% 29.94 in 10.0 mi SSE 3.5 mph - N/A   Clear
9:15 AM 68.0 °F - 60.8 °F 78% 29.94 in 10.0 mi South 3.5 mph - N/A   Clear
9:35 AM 69.8 °F - 59.0 °F 68% 29.95 in 10.0 mi SSW 4.6 mph - N/A   Clear
9:55 AM 71.6 °F - 57.2 °F 60% 29.96 in 10.0 mi South 9.2 mph - N/A   Clear
10:15 AM 73.4 °F - 57.2 °F 57% 29.95 in 10.0 mi South 12.7 mph - N/A   Clear
10:35 AM 75.2 °F - 57.2 °F 53% 29.94 in 10.0 mi South 9.2 mph - N/A   Clear
10:55 AM 77.0 °F - 57.2 °F 50% 29.94 in 10.0 mi South 9.2 mph - N/A   Clear
11:15 AM 80.6 °F 80.5 °F 55.4 °F 42% 29.94 in 10.0 mi South 10.4 mph - N/A   Clear
11:35 AM 80.6 °F 80.3 °F 53.6 °F 39% 29.94 in 10.0 mi SSW 9.2 mph 17.3 mph N/A   Clear
11:55 AM 82.4 °F - 48.2 °F 30% 29.93 in 10.0 mi WSW 6.9 mph - N/A   Clear
12:15 PM 82.4 °F - 46.4 °F 28% 29.93 in 10.0 mi West 10.4 mph 16.1 mph N/A   Clear
12:35 PM 84.2 °F - 42.8 °F 23% 29.93 in 10.0 mi SSW 13.8 mph 18.4 mph N/A   Partly Cloudy
12:55 PM 86.0 °F - 35.6 °F 17% 29.93 in 10.0 mi SSW 9.2 mph 17.3 mph N/A   Clear
1:15 PM 87.8 °F - 32.0 °F 14% 29.92 in 10.0 mi SSW 11.5 mph - N/A   Clear
1:35 PM 86.0 °F - 26.6 °F 12% 29.92 in 10.0 mi West 10.4 mph 16.1 mph N/A   Clear
1:55 PM 87.8 °F - 26.6 °F 11% 29.91 in 10.0 mi WSW 8.1 mph - N/A   Clear
2:15 PM 87.8 °F - 26.6 °F 11% 29.90 in 10.0 mi WSW 12.7 mph 17.3 mph N/A   Clear
2:35 PM 87.8 °F - 26.6 °F 11% 29.90 in 10.0 mi WSW 16.1 mph - N/A   Clear
2:55 PM 87.8 °F - 26.6 °F 11% 29.89 in 10.0 mi WSW 11.5 mph 20.7 mph N/A   Clear
3:15 PM 89.6 °F - 28.4 °F 11% 29.89 in 10.0 mi WSW 16.1 mph 23.0 mph N/A   Clear
3:35 PM 89.6 °F - 28.4 °F 11% 29.88 in 10.0 mi West 16.1 mph - N/A   Clear
3:55 PM 89.6 °F - 30.2 °F 12% 29.87 in 10.0 mi WSW 10.4 mph 23.0 mph N/A   Clear
4:15 PM 91.4 °F - 32.0 °F 12% 29.86 in 10.0 mi South 4.6 mph 21.9 mph N/A   Clear
4:35 PM 91.4 °F - 30.2 °F 11% 29.86 in 10.0 mi West 9.2 mph 17.3 mph N/A   Clear
4:55 PM 89.6 °F - 30.2 °F 12% 29.84 in 10.0 mi SW 5.8 mph - N/A   Clear
5:15 PM 91.4 °F - 33.8 °F 13% 29.83 in 10.0 mi SW 10.4 mph 25.3 mph N/A   Clear
5:35 PM 91.4 °F - 33.8 °F 13% 29.83 in 10.0 mi South 18.4 mph 21.9 mph N/A   Clear
5:55 PM 91.4 °F - 33.8 °F 13% 29.82 in 10.0 mi SW 13.8 mph 20.7 mph N/A   Clear
6:15 PM 91.4 °F - 32.0 °F 12% 29.82 in 10.0 mi South 15.0 mph 20.7 mph N/A   Clear
6:35 PM 89.6 °F - 28.4 °F 11% 29.80 in 10.0 mi South 25.3 mph 28.8 mph N/A   Clear
6:55 PM 89.6 °F - 28.4 °F 11% 29.80 in 10.0 mi SSW 21.9 mph 26.5 mph N/A   Clear
7:15 PM 89.6 °F - 26.6 °F 10% 29.80 in 10.0 mi SW 12.7 mph 16.1 mph N/A   Clear
7:35 PM 89.6 °F - 26.6 °F 10% 29.80 in 10.0 mi SW 21.9 mph 25.3 mph N/A   Clear
7:55 PM 87.8 °F - 26.6 °F 11% 29.80 in 10.0 mi SW 13.8 mph - N/A   Clear
8:15 PM 87.8 °F - 24.8 °F 10% 29.80 in 10.0 mi SSW 18.4 mph 21.9 mph N/A   Clear
8:35 PM 84.2 °F - 23.0 °F 11% 29.80 in 10.0 mi SW 10.4 mph - N/A   Clear
8:55 PM 80.6 °F - 21.2 °F 11% 29.80 in 10.0 mi SW 10.4 mph - N/A   Clear
9:15 PM 78.8 °F - 19.4 °F 11% 29.80 in 10.0 mi West 8.1 mph - N/A   Clear
9:35 PM 75.2 °F - 17.6 °F 11% 29.80 in 10.0 mi West 4.6 mph - N/A   Clear
9:55 PM 73.4 °F - 55.4 °F 53% 29.80 in 10.0 mi ESE 13.8 mph 19.6 mph N/A   Clear
10:15 PM 71.6 °F - 57.2 °F 60% 29.80 in 10.0 mi ESE 12.7 mph - N/A   Clear
10:35 PM 71.6 °F - 55.4 °F 57% 29.80 in 10.0 mi ESE 11.5 mph - N/A   Clear
10:55 PM 69.8 °F - 55.4 °F 60% 29.81 in 10.0 mi SE 11.5 mph - N/A   Clear
11:15 PM 69.8 °F - 55.4 °F 60% 29.81 in 10.0 mi ESE 15.0 mph - N/A   Clear
11:35 PM 69.8 °F - 57.2 °F 64% 29.82 in 10.0 mi ESE 15.0 mph 20.7 mph N/A   Clear
11:55 PM 69.8 °F - 57.2 °F 64% 29.83 in 10.0 mi ESE 15.0 mph - N/A   Clear